Location: Carri�res
(48.9069°N, 2.1792°E)
Time: 20:41:25
(UTC+00:00)

Lacrosse 5 - Pass Details

Date: 17 January 2021
Orbit: 715 x 724 km, 57.0° (Epoch: 01 March)

Event Time Altitude Azimuth Distance (km) Brightness Sun altitude
Rises 18:29:13 0° 303° (WNW) 3,124 5.9 -19.8°
Reaches altitude 10° 18:31:38 10° 307° (NW) 2,202 5.0 -20.2°
Maximum altitude 18:36:39 61° 28° (NNE) 816 1.9 -21.0°
Enters shadow 18:37:38 50° 75° (ENE) 910 1.9 -21.2°
